Retour au catalogue

CZ-4B DEB

ActifLEO
NORAD 48622·DEBRIS·🇨🇳 China

Lancé May 19, 2021 depuis Jiuquan Satellite Launch Center

Loading…

Prochains Passages (prochaines 24 heures)

TLE

FraisSource: Space-Track

Époque: Sep 14, 2026, 08:48 UTC

1 48622U 21043B   26257.36717999  .00000015  00000-0  82169-4 0  9991
2 48622  65.9002  33.2263 0024164 175.1738 184.9570 13.87591899269656

Suivez CZ-4B DEB en temps réel avec AllMySat

Download on the App Store